RYR3HM LDDU-LOWW

Flight info

Callsign RYR3HM
Flight time 1h 3m
Altitude 34000
Route AMUGO DCT UNIPA DCT OBUTI OBUTI2W
Aircraft A320/M-SDE3FGHIRWY/LB1

Departure

Time 2026-04-26 06:37
Airport Dubrovnik Ruđer Bošković Airport (LDDU)

Arrival

Time 2026-04-26 07:41
Airport Vienna International Airport (LOWW)
Time Latitude Longitude Altitude Speed Heading
2026-04-26 06:24 42.56143 18.26151 534 ft 0 kts 208°
2026-04-26 06:25 42.56145 18.26151 534 ft 0 kts 208°
2026-04-26 06:31 42.56147 18.26153 534 ft 2 kts 208°
2026-04-26 06:31 42.56165 18.26166 534 ft 3 kts 209°
2026-04-26 06:32 42.56185 18.26187 534 ft 4 kts 242°
2026-04-26 06:32 42.56190 18.26218 534 ft 4 kts 294°
2026-04-26 06:32 42.56182 18.26238 534 ft 0 kts 298°
2026-04-26 06:34 42.56183 18.26236 534 ft 1 kts 298°
2026-04-26 06:34 42.56191 18.26216 534 ft 4 kts 298°
2026-04-26 06:34 42.56213 18.26161 534 ft 9 kts 298°
2026-04-26 06:34 42.56249 18.26070 534 ft 13 kts 298°
2026-04-26 06:35 42.56297 18.25948 534 ft 16 kts 298°
2026-04-26 06:35 42.56372 18.25759 534 ft 19 kts 299°
2026-04-26 06:35 42.56416 18.25651 534 ft 20 kts 298°
2026-04-26 06:35 42.56488 18.25520 534 ft 12 kts
2026-04-26 06:36 42.56533 18.25611 535 ft 13 kts 60°
2026-04-26 06:36 42.56572 18.25705 535 ft 8 kts 70°
2026-04-26 06:36 42.56551 18.25780 535 ft 11 kts 119°
2026-04-26 06:36 42.56432 18.26081 534 ft 71 kts 118°
2026-04-26 06:37 42.56097 18.26923 535 ft 130 kts 118°
2026-04-26 06:37 42.55608 18.28179 688 ft 159 kts 118°
2026-04-26 06:37 42.55084 18.29488 1295 ft 158 kts 119°
2026-04-26 06:37 42.54548 18.30801 1905 ft 160 kts 118°
2026-04-26 06:38 42.53931 18.32079 2409 ft 170 kts 140°
2026-04-26 06:38 42.52820 18.32671 2870 ft 180 kts 182°
2026-04-26 06:38 42.51628 18.32113 3368 ft 189 kts 222°
2026-04-26 06:38 42.50724 18.30766 3801 ft 200 kts 242°
2026-04-26 06:39 42.50268 18.28945 4204 ft 211 kts 267°
2026-04-26 06:39 42.50337 18.26910 4626 ft 224 kts 277°
2026-04-26 06:39 42.50483 18.24716 5047 ft 242 kts 277°
2026-04-26 06:39 42.50687 18.22370 5570 ft 259 kts 286°
2026-04-26 06:40 42.51516 18.20191 6257 ft 265 kts 314°
2026-04-26 06:40 42.52910 18.18538 7039 ft 269 kts 322°
2026-04-26 06:40 42.54381 18.16928 7847 ft 273 kts 322°
2026-04-26 06:40 42.55871 18.15298 8677 ft 277 kts 322°
2026-04-26 06:41 42.57376 18.13650 9508 ft 280 kts 322°
2026-04-26 06:41 42.58904 18.11972 10264 ft 286 kts 322°
2026-04-26 06:41 42.60488 18.10225 10673 ft 302 kts 321°
2026-04-26 06:41 42.62166 18.08377 11028 ft 319 kts 321°
2026-04-26 06:42 42.63930 18.06437 11436 ft 332 kts 321°
2026-04-26 06:42 42.65738 18.04448 12088 ft 336 kts 321°
2026-04-26 06:42 42.67563 18.02434 12798 ft 340 kts 320°
2026-04-26 06:42 42.69406 18.00396 13493 ft 343 kts 320°
2026-04-26 06:43 42.71263 17.98337 14158 ft 347 kts 320°
2026-04-26 06:43 42.73137 17.96257 14796 ft 349 kts 320°
2026-04-26 06:43 42.75028 17.94159 15416 ft 352 kts 320°
2026-04-26 06:43 42.76932 17.92044 16037 ft 355 kts 320°
2026-04-26 06:44 42.78852 17.89912 16654 ft 357 kts 319°
2026-04-26 06:44 42.80787 17.87764 17266 ft 360 kts 319°
2026-04-26 06:44 42.82713 17.85627 17887 ft 363 kts 319°
2026-04-26 06:44 42.84703 17.83419 18518 ft 366 kts 319°
2026-04-26 06:45 42.86683 17.81219 19067 ft 369 kts 319°
2026-04-26 06:45 42.88649 17.79028 19667 ft 371 kts 319°
2026-04-26 06:45 42.90646 17.76796 20284 ft 372 kts 318°
2026-04-26 06:45 42.92651 17.74553 20900 ft 374 kts 318°
2026-04-26 06:46 42.94667 17.72294 21457 ft 376 kts 318°
2026-04-26 06:46 42.96692 17.70027 22026 ft 378 kts 317°
2026-04-26 06:46 42.98728 17.67744 22582 ft 379 kts 317°
2026-04-26 06:46 43.00770 17.65455 23127 ft 381 kts 317°
2026-04-26 06:47 43.02828 17.63148 23665 ft 383 kts 317°
2026-04-26 06:47 43.04892 17.60832 24099 ft 385 kts 317°
2026-04-26 06:47 43.06967 17.58500 24517 ft 387 kts 317°
2026-04-26 06:47 43.09055 17.56155 24914 ft 389 kts 317°
2026-04-26 06:48 43.11157 17.53793 25305 ft 392 kts 317°
2026-04-26 06:48 43.13267 17.51420 25681 ft 394 kts 317°
2026-04-26 06:48 43.15393 17.49022 26063 ft 397 kts 317°
2026-04-26 06:48 43.17524 17.46615 26427 ft 399 kts 317°
2026-04-26 06:49 43.19673 17.44189 26790 ft 401 kts 317°
2026-04-26 06:49 43.21833 17.41748 27148 ft 404 kts 318°
2026-04-26 06:49 43.24005 17.39289 27501 ft 406 kts 318°
2026-04-26 06:49 43.26186 17.36817 27839 ft 408 kts 318°
2026-04-26 06:50 43.28379 17.34326 28167 ft 410 kts 318°
2026-04-26 06:50 43.30584 17.31817 28514 ft 413 kts 318°
2026-04-26 06:50 43.32798 17.29294 28855 ft 415 kts 318°
2026-04-26 06:50 43.35023 17.26761 29194 ft 417 kts 319°
2026-04-26 06:51 43.37268 17.24209 29536 ft 420 kts 319°
2026-04-26 06:51 43.41791 17.19058 30174 ft 424 kts 319°
2026-04-26 06:51 43.44068 17.16459 30442 ft 427 kts 319°
2026-04-26 06:52 43.46356 17.13843 30720 ft 428 kts 319°
2026-04-26 06:52 43.48646 17.11222 31093 ft 427 kts 319°
2026-04-26 06:52 43.50931 17.08604 31490 ft 426 kts 319°
2026-04-26 06:52 43.53204 17.05996 31876 ft 425 kts 319°
2026-04-26 06:53 43.55483 17.03392 32268 ft 425 kts 320°
2026-04-26 06:53 43.58000 17.01272 32678 ft 427 kts 335°
2026-04-26 06:53 43.60856 17.00148 33084 ft 429 kts 347°
2026-04-26 06:53 43.63794 16.99392 33422 ft 430 kts 347°
2026-04-26 06:54 43.66739 16.98654 33774 ft 430 kts 347°
2026-04-26 06:54 43.69691 16.97924 34055 ft 431 kts 347°
2026-04-26 06:54 43.75527 16.96492 34104 ft 428 kts 347°
2026-04-26 06:55 43.81388 16.95025 34097 ft 428 kts 347°
2026-04-26 06:55 43.87244 16.93536 34104 ft 428 kts 347°
2026-04-26 06:56 43.93110 16.92050 34112 ft 428 kts 347°
2026-04-26 06:56 43.98969 16.90566 34114 ft 428 kts 347°
2026-04-26 06:57 44.04836 16.89078 34119 ft 429 kts 347°
2026-04-26 06:57 44.10703 16.87591 34119 ft 429 kts 347°
2026-04-26 06:58 44.16573 16.86092 34122 ft 429 kts 347°
2026-04-26 06:58 44.22442 16.84591 34125 ft 429 kts 347°
2026-04-26 06:59 44.28310 16.83088 34128 ft 429 kts 347°
2026-04-26 06:59 44.34179 16.81584 34124 ft 428 kts 347°
2026-04-26 07:00 44.40000 16.80089 34125 ft 428 kts 347°
2026-04-26 07:00 44.45851 16.78587 34131 ft 428 kts 347°
2026-04-26 07:01 44.51699 16.77081 34125 ft 427 kts 347°
2026-04-26 07:01 44.57541 16.75573 34123 ft 426 kts 347°
2026-04-26 07:02 44.63370 16.74067 34126 ft 426 kts 347°
2026-04-26 07:02 44.69195 16.72551 34132 ft 426 kts 347°
2026-04-26 07:03 44.74981 16.71040 34133 ft 426 kts 347°
2026-04-26 07:03 44.80800 16.69528 34128 ft 426 kts 347°
2026-04-26 07:04 44.86629 16.68014 34128 ft 425 kts 347°
2026-04-26 07:04 44.92448 16.66496 34121 ft 426 kts 347°
2026-04-26 07:05 44.98263 16.64963 34124 ft 425 kts 347°
2026-04-26 07:05 45.04087 16.63431 34121 ft 425 kts 347°
2026-04-26 07:06 45.09900 16.61911 34122 ft 425 kts 347°
2026-04-26 07:06 45.15716 16.60369 34122 ft 425 kts 347°
2026-04-26 07:07 45.21533 16.58831 34120 ft 425 kts 347°
2026-04-26 07:07 45.27345 16.57296 34123 ft 425 kts 347°
2026-04-26 07:08 45.33149 16.55753 34127 ft 424 kts 347°
2026-04-26 07:08 45.38943 16.54210 34126 ft 424 kts 347°
2026-04-26 07:09 45.44732 16.52661 34122 ft 423 kts 347°
2026-04-26 07:09 45.50520 16.51118 34127 ft 423 kts 347°
2026-04-26 07:11 45.63805 16.47565 34122 ft 423 kts 347°
2026-04-26 07:11 45.69581 16.46009 34121 ft 423 kts 347°
2026-04-26 07:12 45.75362 16.44446 34123 ft 422 kts 347°
2026-04-26 07:12 45.81138 16.42888 34121 ft 422 kts 347°
2026-04-26 07:13 45.86915 16.41336 34121 ft 423 kts 347°
2026-04-26 07:13 45.92691 16.39766 34114 ft 423 kts 348°
2026-04-26 07:14 45.98476 16.38190 34116 ft 423 kts 348°
2026-04-26 07:14 46.04254 16.36615 34116 ft 423 kts 348°
2026-04-26 07:15 46.10043 16.35038 34112 ft 423 kts 348°
2026-04-26 07:15 46.15836 16.33455 34105 ft 424 kts 348°
2026-04-26 07:16 46.21600 16.31872 34112 ft 425 kts 348°
2026-04-26 07:16 46.27445 16.30267 34116 ft 425 kts 348°
2026-04-26 07:17 46.33221 16.28677 34104 ft 425 kts 348°
2026-04-26 07:17 46.38096 16.27337 34105 ft 425 kts 348°
2026-04-26 07:18 46.43927 16.25881 34111 ft 426 kts 350°
2026-04-26 07:18 46.46875 16.25206 33774 ft 429 kts 350°
2026-04-26 07:18 46.49850 16.24531 32725 ft 436 kts 351°
2026-04-26 07:18 46.52831 16.23847 32201 ft 430 kts 351°
2026-04-26 07:19 46.55771 16.23163 31687 ft 425 kts 351°
2026-04-26 07:19 46.58671 16.22483 31173 ft 420 kts 351°
2026-04-26 07:19 46.61543 16.21805 30661 ft 416 kts 351°
2026-04-26 07:19 46.64379 16.21132 30150 ft 411 kts 351°
2026-04-26 07:20 46.67188 16.20461 29613 ft 406 kts 351°
2026-04-26 07:20 46.69958 16.19797 29114 ft 400 kts 350°
2026-04-26 07:20 46.72689 16.19146 28628 ft 395 kts 350°
2026-04-26 07:20 46.75385 16.18503 28153 ft 390 kts 350°
2026-04-26 07:21 46.78044 16.17866 27685 ft 385 kts 350°
2026-04-26 07:21 46.80643 16.17240 27232 ft 381 kts 350°
2026-04-26 07:21 46.83245 16.16611 26798 ft 377 kts 350°
2026-04-26 07:21 46.85854 16.15984 26357 ft 373 kts 350°
2026-04-26 07:22 46.88402 16.15374 25943 ft 370 kts 350°
2026-04-26 07:22 46.90933 16.14766 25530 ft 367 kts 350°
2026-04-26 07:22 46.93442 16.14162 25104 ft 364 kts 349°
2026-04-26 07:22 46.95906 16.13566 24675 ft 363 kts 349°
2026-04-26 07:23 46.98388 16.12966 24251 ft 361 kts 349°
2026-04-26 07:23 47.00891 16.12360 23795 ft 360 kts 349°
2026-04-26 07:23 47.03356 16.11763 23312 ft 358 kts 349°
2026-04-26 07:23 47.05772 16.11177 22857 ft 355 kts 349°
2026-04-26 07:24 47.08196 16.10593 22409 ft 351 kts 349°
2026-04-26 07:24 47.10597 16.10015 21943 ft 348 kts 349°
2026-04-26 07:24 47.12981 16.09439 21478 ft 345 kts 349°
2026-04-26 07:24 47.15342 16.08870 21001 ft 343 kts 349°
2026-04-26 07:25 47.17686 16.08302 20522 ft 340 kts 349°
2026-04-26 07:25 47.20014 16.07738 20045 ft 338 kts 349°
2026-04-26 07:25 47.22334 16.07176 19560 ft 337 kts 349°
2026-04-26 07:25 47.24638 16.06618 19069 ft 336 kts 349°
2026-04-26 07:26 47.26940 16.06057 18584 ft 334 kts 349°
2026-04-26 07:26 47.29234 16.05496 18054 ft 333 kts 349°
2026-04-26 07:26 47.31514 16.04939 17552 ft 331 kts 349°
2026-04-26 07:26 47.33773 16.04387 17056 ft 329 kts 348°
2026-04-26 07:27 47.36040 16.03971 16575 ft 328 kts 357°
2026-04-26 07:27 47.38313 16.04327 16084 ft 331 kts 11°
2026-04-26 07:27 47.40512 16.05369 15588 ft 332 kts 15°
2026-04-26 07:27 47.42697 16.06463 15089 ft 331 kts 15°
2026-04-26 07:28 47.44877 16.07563 14619 ft 331 kts 18°
2026-04-26 07:28 47.46841 16.09231 14553 ft 323 kts 34°
2026-04-26 07:28 47.48550 16.11296 14445 ft 312 kts 35°
2026-04-26 07:28 47.50232 16.13340 14018 ft 314 kts 35°
2026-04-26 07:29 47.51919 16.15392 13565 ft 314 kts 34°
2026-04-26 07:29 47.53599 16.17439 13138 ft 312 kts 34°
2026-04-26 07:29 47.55271 16.19483 12724 ft 310 kts 34°
2026-04-26 07:29 47.56926 16.21513 12314 ft 308 kts 34°
2026-04-26 07:30 47.58577 16.23539 11904 ft 308 kts 33°
2026-04-26 07:30 47.60222 16.25556 11489 ft 307 kts 33°
2026-04-26 07:30 47.61867 16.27573 11073 ft 306 kts 32°
2026-04-26 07:30 47.63503 16.29584 10684 ft 305 kts 32°
2026-04-26 07:31 47.65131 16.31588 10277 ft 304 kts 32°
2026-04-26 07:31 47.66734 16.33568 10105 ft 294 kts 32°
2026-04-26 07:31 47.68255 16.35457 9932 ft 284 kts 31°
2026-04-26 07:31 47.69752 16.37308 9604 ft 280 kts 31°
2026-04-26 07:32 47.71282 16.39185 9107 ft 283 kts 31°
2026-04-26 07:32 47.72789 16.41035 8714 ft 281 kts 31°
2026-04-26 07:32 47.74304 16.42901 8343 ft 281 kts 31°
2026-04-26 07:32 47.75777 16.44727 8049 ft 279 kts 31°
2026-04-26 07:33 47.77255 16.46567 7570 ft 275 kts 31°
2026-04-26 07:33 47.78720 16.48393 6983 ft 275 kts 31°
2026-04-26 07:33 47.80182 16.50211 6409 ft 273 kts 31°
2026-04-26 07:33 47.81634 16.52014 5846 ft 270 kts 32°
2026-04-26 07:34 47.83067 16.53793 5330 ft 266 kts 32°
2026-04-26 07:34 47.84477 16.55549 4827 ft 262 kts 32°
2026-04-26 07:34 47.85858 16.57271 4441 ft 254 kts 33°
2026-04-26 07:34 47.87158 16.58902 4310 ft 234 kts 33°
2026-04-26 07:35 47.88355 16.60406 4225 ft 217 kts 33°
2026-04-26 07:35 47.89476 16.61807 4130 ft 204 kts 33°
2026-04-26 07:35 47.90529 16.63122 4046 ft 192 kts 32°
2026-04-26 07:35 47.91587 16.64404 3963 ft 194 kts 26°
2026-04-26 07:36 47.92726 16.65200 3862 ft 171 kts
2026-04-26 07:36 47.93855 16.65359 3681 ft 157 kts 352°
2026-04-26 07:36 47.94917 16.65005 3499 ft 157 kts 342°
2026-04-26 07:36 47.95966 16.64564 3295 ft 157 kts 343°
2026-04-26 07:37 47.97012 16.64125 3087 ft 154 kts 343°
2026-04-26 07:37 47.98052 16.63688 2869 ft 156 kts 343°
2026-04-26 07:37 47.99097 16.63249 2657 ft 153 kts 343°
2026-04-26 07:37 48.00062 16.62845 2459 ft 137 kts 343°
2026-04-26 07:38 48.00981 16.62458 2275 ft 137 kts 343°
2026-04-26 07:38 48.01897 16.62072 2098 ft 137 kts 343°
2026-04-26 07:38 48.02777 16.61702 1906 ft 123 kts 343°
2026-04-26 07:38 48.03603 16.61353 1737 ft 124 kts 343°
2026-04-26 07:39 48.04434 16.61016 1531 ft 124 kts 343°
2026-04-26 07:39 48.05265 16.60679 1341 ft 123 kts 342°
2026-04-26 07:39 48.06089 16.60308 1156 ft 124 kts 342°
2026-04-26 07:39 48.06916 16.59945 1019 ft 122 kts 342°
2026-04-26 07:40 48.07741 16.59612 879 ft 125 kts 343°
2026-04-26 07:40 48.08560 16.59257 704 ft 120 kts 344°
2026-04-26 07:40 48.09354 16.58926 621 ft 108 kts 345°
2026-04-26 07:40 48.09853 16.58721 624 ft 54 kts 346°
2026-04-26 07:41 48.10176 16.58585 622 ft 43 kts 343°
2026-04-26 07:41 48.10363 16.58469 610 ft 24 kts 319°
2026-04-26 07:41 48.10455 16.58273 610 ft 23 kts 298°
2026-04-26 07:41 48.10559 16.58136 612 ft 20 kts 348°
2026-04-26 07:42 48.10704 16.58078 617 ft 24 kts 343°
2026-04-26 07:42 48.10860 16.58011 610 ft 25 kts 344°
2026-04-26 07:42 48.11037 16.57936 622 ft 27 kts 345°
2026-04-26 07:42 48.11142 16.57764 622 ft 23 kts 296°
2026-04-26 07:43 48.11219 16.57541 619 ft 25 kts 297°
2026-04-26 07:43 48.11296 16.57298 622 ft 27 kts 297°
2026-04-26 07:43 48.11379 16.57040 618 ft 28 kts 296°
2026-04-26 07:43 48.11468 16.56767 610 ft 28 kts 295°
2026-04-26 07:44 48.11551 16.56508 619 ft 26 kts 297°
2026-04-26 07:44 48.11632 16.56260 618 ft 27 kts 295°
2026-04-26 07:44 48.11712 16.56017 613 ft 21 kts 296°
2026-04-26 07:44 48.11777 16.55821 614 ft 19 kts 302°
2026-04-26 07:45 48.11862 16.55775 621 ft 12 kts 345°
2026-04-26 07:45 48.11902 16.55762 613 ft 1 kts 349°
2026-04-26 07:45 48.11904 16.55761 612 ft 0 kts 349°